Location: Unspecified
(0.0000°N, 0.0000°E)
Time: 12:13:49
(UTC+00:00)

A-11 Canister half - All Passes

Search period start: 01 October 2014 00:00
Search period end: 11 October 2014 00:00
Orbit: 1518 x 1682 km, 47.2° (Epoch: 29 September)

Date Brightness Start Highest point End Pass type
(mag) Time Alt. Az. Time Alt. Az. Time Alt. Az.
01 Oct - 06:41:53 10° N 06:48:19 20° NE 06:54:50 10° E daylight
01 Oct - 08:43:38 10° NW 08:53:13 82° SW 09:03:12 10° SE daylight
01 Oct - 10:53:10 10° W 10:58:35 16° SW 11:04:07 10° S daylight
01 Oct - 19:30:57 10° SSW 19:40:15 46° SE 19:49:11 10° ENE visible
01 Oct - 21:36:14 10° WSW 21:44:59 38° NW 21:53:30 10° NNE visible
02 Oct - 06:19:30 10° N 06:25:23 18° NE 06:31:21 10° E daylight
02 Oct - 08:20:46 10° NW 08:30:21 88° SW 08:40:18 10° SE daylight
02 Oct - 10:29:38 10° W 10:35:37 18° SW 10:41:44 10° S daylight
02 Oct - 19:08:12 10° SSW 19:17:21 42° SE 19:26:09 10° ENE visible
02 Oct - 21:13:08 10° WSW 21:22:07 42° NW 21:30:50 10° NNE visible
03 Oct - 05:57:11 10° NNE 06:02:27 16° NE 06:07:47 10° E daylight
03 Oct - 07:57:56 10° NW 08:07:28 86° NE 08:17:24 10° SE daylight
03 Oct - 10:06:12 10° W 10:12:39 20° SW 10:19:16 10° S daylight
03 Oct - 18:45:28 10° SSW 18:54:27 38° SE 19:03:06 10° ENE visible
03 Oct - 20:50:03 10° WSW 20:59:14 46° NW 21:08:08 10° NNE visible
04 Oct - 05:34:59 10° NNE 05:39:31 14° NE 05:44:05 10° ENE daylight
04 Oct - 07:35:06 10° NW 07:44:36 79° NE 07:54:28 10° SE daylight
04 Oct - 09:42:51 10° W 09:49:42 22° SW 09:56:45 10° S daylight
04 Oct - 18:22:45 10° SSW 18:31:32 35° SE 18:40:01 10° ENE visible
04 Oct - 20:26:59 10° WSW 20:36:22 50° NW 20:45:26 10° NNE visible
05 Oct - 05:12:58 10° NNE 05:16:33 13° NE 05:20:10 10° ENE visible
05 Oct - 07:12:18 10° NNW 07:21:44 73° NE 07:31:32 10° SE daylight
05 Oct - 09:19:32 10° W 09:26:45 24° SW 09:34:11 10° S daylight
05 Oct - 18:00:03 10° SSW 18:08:38 32° SE 18:16:54 10° ENE visible
05 Oct - 20:03:57 10° SW 20:13:29 55° NW 20:22:42 10° NNE visible
06 Oct - 04:51:24 10° NNE 04:53:36 11° NE 04:55:48 10° ENE visible
06 Oct - 06:49:30 10° NNW 06:58:52 67° NE 07:08:34 10° SE daylight
06 Oct - 08:56:18 10° W 09:03:49 26° SW 09:11:35 10° S daylight
06 Oct - 17:37:23 10° S 17:45:42 30° SE 17:53:45 10° ENE daylight
06 Oct - 19:40:56 10° SW 19:50:37 60° NW 19:59:57 10° NNE visible
07 Oct - 06:26:44 10° NNW 06:36:00 62° NE 06:45:35 10° SE daylight
07 Oct - 08:33:06 10° WNW 08:40:53 28° SW 08:48:58 10° S daylight
07 Oct - 17:14:44 10° S 17:22:46 27° SE 17:30:34 10° ENE daylight
07 Oct - 19:17:57 10° SW 19:27:44 65° NW 19:37:11 10° NNE visible
07 Oct - 21:31:26 10° NW 21:33:04 11° NW 21:34:42 10° NW visible
08 Oct - 06:03:59 10° NNW 06:13:08 57° NE 06:22:35 10° SE daylight
08 Oct - 08:09:56 10° WNW 08:17:58 31° SW 08:26:18 10° S daylight
08 Oct - 16:52:07 10° S 16:59:50 25° SE 17:07:20 10° E daylight
08 Oct - 18:54:58 10° SW 19:04:52 71° NW 19:14:24 10° NNE visible
08 Oct - 21:06:46 10° WNW 21:10:06 12° NW 21:13:25 10° NNW visible
09 Oct - 05:41:15 10° NNW 05:50:16 52° NE 05:59:34 10° SE daylight
09 Oct - 07:46:48 10° WNW 07:55:04 34° SW 08:03:38 10° SSE daylight
09 Oct - 16:29:32 10° S 16:36:54 23° SE 16:44:03 10° E daylight
09 Oct - 18:32:01 10° SW 18:41:59 77° NW 18:51:35 10° NE visible
09 Oct - 20:42:45 10° WNW 20:47:09 14° NW 20:51:29 10° NNW visible
10 Oct - 05:18:32 10° NNW 05:27:24 48° NE 05:36:31 10° ESE visible
10 Oct - 07:23:43 10° WNW 07:32:09 37° SW 07:40:56 10° SSE daylight
10 Oct - 16:07:00 10° S 16:13:56 21° SE 16:20:43 10° E daylight
10 Oct - 18:09:05 10° SW 18:19:06 83° NW 18:28:46 10° NE visible
10 Oct - 20:18:59 10° W 20:24:11 16° NW 20:29:20 10° NNW visible
